Location: Lochrist
(48.0707°N, 3.3310°W)
Time: 09:06:20
(UTC+00:00)

Daily predictions for brighter satellites

Satellite Brightness Start Highest point End
(mag) Time Altitude Azimuth Time Altitude Azimuth Time Altitude Azimuth
Meteor 2-3 Rocket 4.4 16:52:03 10° NNW 16:57:48 63° W 17:03:26 10° S
YAOGAN 1 4.4 17:01:16 10° ENE 17:02:50 12° ENE 17:04:25 10° NE
ALOS 3.0 16:58:57 10° S 17:03:33 60° W 17:08:11 10° NNW
Cosmos 724 4.3 16:58:19 10° NNW 17:04:10 66° NE 17:09:55 10° SE
CZ-4 R/B 3.1 17:02:25 10° E 17:04:24 13° ENE 17:06:22 10° NNE
PSLV R/B 4.2 17:00:42 10° NNE 17:04:50 50° E 17:08:56 10° S
SMAP 3.3 17:02:33 10° SE 17:07:01 48° ENE 17:11:31 10° N
AQUARIUS 4.5 17:02:59 10° SE 17:07:15 44° ENE 17:11:31 10° N
Cosmos 1980 Rocket 3.1 17:03:22 10° SSE 17:08:08 29° ESE 17:12:58 10° NE
Cosmos 397 4.4 17:04:58 10° NNW 17:09:07 67° NE 17:13:18 10° SE
ERBS 2.7 17:06:40 10° WSW 17:09:56 55° NNW 17:13:14 10° NE
ASTEX 1 3.6 17:04:58 10° N 17:09:59 78° W 17:14:57 10° SSW
Cosmos 1862 3.7 17:07:11 10° N 17:10:59 41° ENE 17:14:46 10° SSE
USA 215 3.9 17:05:16 10° ENE 17:11:18 41° N 17:17:20 10° WNW
Cosmos 2297 Rocket 3.3 17:08:33 10° NW 17:14:01 51° WSW 17:19:28 10° S
Cosmos 2227 Rocket 3.1 17:09:30 10° NW 17:15:02 54° WSW 17:20:31 10° S
Lacrosse 4 Rocket 1.3 17:11:02 10° SSW 17:15:05 83° ESE 17:19:10 10° NE
NOSS 2-3 (E) 3.9 17:15:20 10° SSW 17:19:36 56° ESE 17:24:38 10° NE
Cosmos 923 Rocket 4.0 17:15:49 10° S 17:20:57 64° ESE 17:26:07 10° NNE
SeaSat 1 3.2 17:18:35 10° ESE 17:22:55 32° NE 17:27:15 10° NNW
USA 229 DEB 4.0 17:16:29 10° SW 17:23:03 68° NW 17:30:00 10° NE
Cosmos 1624 Rocket 4.3 17:17:58 10° NNW 17:23:08 46° ENE 17:28:14 10° SE
USA 229 4.0 17:16:35 10° SW 17:23:09 69° NW 17:30:06 10° NE
Cosmos 2056 Rocket 3.8 17:19:40 10° NNW 17:24:37 45° ENE 17:29:35 10° SE
BREEZE-M DEB (TANK) 3.2 17:14:22 10° W 17:25:00 81° N 17:27:57 13° ENE
NOSS 3-1 (C) 3.7 17:19:35 10° SW 17:25:11 68° NW 17:31:46 10° NE
Cosmos 2263 Rocket 2.9 17:22:16 10° NNW 17:27:13 31° NE 17:32:08 10° ESE
Cosmos 1805 Rocket 4.1 17:23:02 10° NNW 17:27:22 63° W 17:31:42 10° S
NOSS 3-1 (A) 3.4 17:22:38 10° SW 17:28:14 89° ESE 17:34:46 10° NE
ATLAS 5 CENTAUR R/B 4.4 17:23:19 10° WNW 17:28:31 33° WSW 17:34:17 10° S
NOSS 2-3 (D) 3.8 17:25:03 10° SSW 17:29:22 63° SE 17:34:17 11° NE
Cosmos 1689 Rocket 4.3 17:27:34 10° N 17:30:12 26° WNW 17:32:48 10° SW
H-2A R/B 2.6 17:30:49 10° SSE 17:34:38 75° ENE 17:38:25 10° N
YAOGAN 6 3.6 17:31:49 10° ESE 17:34:39 23° ENE 17:37:28 10° NNE
Feng Yun 1-1 Rocket 4.3 17:33:50 10° SSE 17:39:22 83° WSW 17:44:51 10° NNW
IRS-1C Rocket 4.4 17:37:03 10° S 17:42:19 71° WSW 17:47:37 10° NNW
Cosmos 2369 3.8 17:38:18 10° SSW 17:43:58 85° WNW 17:49:44 10° NNE
Cosmos 1697 Rocket 2.7 17:39:05 10° SSW 17:44:45 89° WNW 17:50:26 10° NNE
Cosmos 1869 4.5 17:41:14 10° SSW 17:44:59 44° WNW 17:48:47 10° N
CENTAUR R/B 4.0 17:40:04 10° NW 17:46:28 30° NNE 17:51:27 17° ENE
COBE Rocket 3.7 17:44:08 10° NNE 17:48:52 65° E 17:53:29 10° S
Envisat 3.0 17:44:22 10° SSE 17:49:21 61° ENE 17:54:23 10° N
Cosmos 1656 4.4 17:44:05 10° SW 17:49:27 51° WNW 17:54:48 10° NNE
Cosmos 1151 Rocket 3.1 17:46:43 10° S 17:50:59 56° E 17:55:18 10° NNE
YAOGAN 3 4.5 17:47:46 10° SSE 17:52:07 76° ENE 17:56:30 10° N
Cosmos 1633 Rocket 3.2 17:47:51 10° NNW 17:52:17 79° W 17:56:42 10° S
Cosmos 2034 Rocket 4.0 17:47:04 10° N 17:53:29 79° E 17:59:52 10° SSE
Sich 1 4.3 17:50:26 10° NNW 17:54:37 45° W 17:58:48 10° SSW
Okean-O 2.5 17:50:33 10° SSE 17:54:59 84° ENE 17:59:27 10° NNW
Cosmos 158 Rocket 4.0 17:52:23 10° S 17:57:32 57° ESE 18:02:06 13° NNE
Cosmos 2278 3.8 17:55:28 10° SSW 18:01:10 84° WNW 18:06:55 10° NNE
Cosmos 2360 4.2 17:56:54 10° SSW 18:02:37 85° ESE 18:08:10 11° NNE
Cosmos 1420 Rocket 4.2 17:58:43 10° NNW 18:03:43 46° ENE 18:08:41 10° SE
FengYun 1-2 T 4.1 18:00:16 10° SSE 18:05:41 66° ENE 18:11:09 10° N
Cosmos 1328 Rocket 3.5 18:02:37 10° S 18:07:02 88° E 18:11:27 10° N
NOSS 2-3 (C) 4.0 18:02:42 10° SW 18:07:08 68° NW 18:11:05 18° NE
Cosmos 1844 Rocket 4.1 18:04:21 10° N 18:08:15 19° NE 18:08:25 19° NE
Cosmos 1634 Rocket 4.1 18:02:47 10° N 18:08:45 47° ENE 18:14:39 10° SSE
Cosmos 1933 Rocket 3.4 18:06:03 10° N 18:10:24 66° E 18:14:44 10° SSE
ATLAS 3B R/B 3.8 18:05:06 10° NW 18:10:32 25° NNE 18:12:57 21° NE
Cosmos 1452 Rocket 3.8 18:07:54 10° NNW 18:13:00 44° ENE 18:16:36 18° SE
Geosat 4.1 18:10:04 21° NE 18:13:16 54° ESE 18:18:10 10° SSW
Cosmos 2228 Rocket 3.4 18:09:24 10° SSE 18:13:38 43° E 18:16:06 23° NNE
Cosmos 1515 Rocket 3.4 18:09:33 10° S 18:13:53 66° E 18:18:13 10° NNE
COSMO-SKYMED 1 2.6 18:10:49 14° NNE 18:14:28 57° E 18:18:45 10° S
USA 238 DEB 4.1 18:08:00 10° NW 18:14:50 46° NE 18:18:44 25° E
USA 238 4.1 18:08:06 10° NW 18:14:55 46° NE 18:18:47 26° E
Cosmos 44 4.1 18:11:19 10° NNW 18:15:03 27° NE 18:15:04 27° NE
Cosmos 1816 Rocket 4.4 18:09:05 10° S 18:15:25 74° E 18:21:47 10° NNE
Cosmos 1371 Rocket 4.5 18:10:24 10° NNW 18:15:32 63° WSW 18:20:38 10° S
ISS -1.3 18:15:23 10° SSE 18:16:05 12° SSE 18:16:05 12° SSE
NOSS 3-2 (A) 4.3 18:10:40 10° NW 18:17:34 46° NE 18:21:46 26° E
COSMOS 2455 3.9 18:15:33 10° SSE 18:19:45 24° ESE 18:19:45 24° ESE
APEX 3.2 18:18:07 10° SW 18:21:17 53° WNW 18:22:08 37° N
Cosmos 2227 4.2 18:15:37 10° NNW 18:21:26 89° WSW 18:27:11 10° SSE
CSL-04 Debris 4.1 18:18:06 10° SSE 18:23:33 66° ENE 18:28:59 10° N
Cosmos 2279 Rocket 4.3 18:18:38 10° N 18:24:27 40° ENE 18:30:16 10° SE
Tsikada Rocket 4.0 18:18:38 10° S 18:25:02 82° E 18:31:29 10° N
NOAA 11 4.3 18:20:37 10° SE 18:25:48 49° ENE 18:31:03 10° N
SL-8 R/B 4.0 18:26:18 10° SW 18:30:58 52° SSE 18:32:05 42° ESE
Cosmos 1606 2.5 18:27:43 10° S 18:31:28 72° E 18:32:01 59° NE
Ariane Rocket 3.5 18:32:53 37° NE 18:32:53 37° NE 18:37:06 10° N
CSL-04 Rocket 3.5 18:27:41 10° SSE 18:33:00 77° ENE 18:38:18 10° NNW
YAOGAN 1 2.4 18:33:55 10° SSE 18:38:14 86° ENE 18:42:35 10° NNW
CZ-4 R/B 1.5 18:34:49 10° S 18:38:55 73° WSW 18:42:57 10° NNW
Meteor 1-26 Rocket 4.3 18:34:16 10° S 18:40:10 64° E 18:45:49 11° NNE
Cosmos 1939 Rocket 4.3 18:42:28 25° N 18:42:28 25° N 18:44:22 10° N
GEOS 3 Rocket 3.5 18:42:00 40° NE 18:43:59 83° SE 18:49:16 10° SW
Cosmos 2360 Rocket 4.3 18:41:57 10° SSE 18:42:21 12° SSE 18:42:21 12° SSE
ERBS 4.4 18:44:19 10° WNW 18:46:28 19° NNW 18:46:28 19° NNW
BREEZE-M DEB (TANK) 3.8 18:44:42 10° WNW 18:46:16 29° W 18:46:16 29° W
Cosmos 1933 3.9 18:46:58 10° SSW 18:50:58 57° WNW 18:53:14 24° N
Meteor 1-20 Rocket 4.3 18:45:58 10° NNW 18:51:51 81° W 18:57:37 10° S
Cosmos 1980 Rocket 2.9 18:46:20 10° SW 18:51:52 52° NW 18:55:57 18° NNE
USA 215 3.6 18:51:53 40° ENE 18:53:36 49° NNE 18:59:50 10° NW
SL-16 R/B 2.1 18:48:05 10° S 18:53:39 59° ESE 18:54:04 58° E
Lacrosse 4 Rocket 3.8 18:51:44 10° WNW 18:54:20 16° NW 18:56:17 12° N
Meteor 1-25 Rocket 4.4 18:51:45 10° NNW 18:57:27 73° W 19:03:11 10° S
Cosmos 2180 Rocket 4.5 18:51:26 10° N 18:57:29 54° ENE 18:57:38 54° E
Cosmos 2322 Rocket 2.3 18:53:55 10° S 18:58:56 55° SE 18:58:56 55° SE
SeaSat 1 3.3 18:55:30 10° S 19:00:16 48° WSW 19:05:04 10° NW
SKYMED 2 4.5 18:59:30 17° N 19:02:36 48° WNW 19:06:46 10° SW
NOSS 3-2 (C) 4.1 18:57:47 10° NW 19:04:55 54° NE 19:06:15 49° ENE
Cosmos 2263 Rocket 2.9 19:06:00 10° NW 19:11:24 51° WSW 19:16:46 10° S
H-2A R/B 4.3 19:23:47 13° N 19:23:47 13° N 19:24:26 10° N
CENTAUR R/B 3.1 19:30:58 10° NW 19:38:39 63° NE 19:38:39 63° NE
Cosmos 1844 Rocket 4.1 19:47:27 10° NNW 19:50:05 29° NNW 19:50:05 29° NNW
ATLAS 2AS CENTAUR R/B 4.0 19:53:24 10° SSW 19:57:20 32° S 19:57:20 32° S
ATLAS 3B R/B 3.5 19:55:52 10° NW 20:00:13 41° NNW 20:00:13 41° NNW
COSMOS 2455 4.0 19:59:34 10° SW 20:02:58 35° SW 20:02:58 35° SW
USA 238 DEB 4.2 19:59:03 10° NW 20:06:05 58° WSW 20:06:13 58° SW
USA 238 4.2 19:59:08 10° NW 20:06:11 59° WSW 20:06:16 59° SW
NOSS 3-2 (A) 4.2 20:01:30 10° NW 20:08:56 64° SW 20:09:12 64° SW
USA 215 4.4 20:39:14 37° WNW 20:39:14 37° WNW 20:42:57 10° NW
SL-16 R/B 4.3 20:33:15 10° WSW 20:35:59 23° W 20:35:59 23° W
Cosmos 2322 Rocket 4.5 20:38:54 10° WSW 20:40:48 19° W 20:40:48 19° W
